Home > Weather > Udon Thani > Past weeks

Flag for Thailand Weather for the Past 2 Weeks in Udon Thani, Thailand

Now
99 °F

Passing clouds.


Feels Like: 108 °F
Forecast: 79 / 96 °F
Wind: 5 mph from Southeast

Location: Udon Thani Airport

Current Time: Apr 29, 2016 at 3:13:32 PM

Latest Report: Apr 29, 2016 at 2:00 PM


Visibility: 4 mi

Pressure: 29.77 "Hg

Humidity: 42%

Dew Point: 72 °F

Location of Udon ThaniLocation

Historic Weather in Udon Thani — Graph

°F

Udon Thani Temperature Yesterday

Maximum temperature yesterday: 102 °F (at 2:00 PM)
Minimum temperature yesterday: 81 °F (at 4:00 AM)
Average temperature yesterday: 92 °F

High & Low Weather Summary for the Past Weeks

 TemperatureHumidityPressure
High106 °F (Apr 14, 3:00 PM)83% (Apr 21, 1:00 AM)29.95 "Hg (Apr 21, 1:00 AM)
Low75 °F (Apr 21, 6:00 AM)25% (Apr 17, 4:00 PM)29.59 "Hg (Apr 23, 4:00 PM)
Average92 °F51%29.74 "Hg
* Reported Apr 14 1:00 PM — Apr 29 1:00 PM, Udon Thani, Weather by CustomWeather, © 2016

Note: Actual official high and low records may vary slightly from our data, if they occured in-between our weather recording intervals... More about our weather records

Advertising

Udon Thani Weather History for the Previous 24 Hours

Scroll right to see more
 ConditionsComfort  
Time TempWeatherWind HumidityBarometerVisibility
1:00 PM
Fri, Apr 29
97 °FPassing clouds.3 mph47%29.80 "Hg4 mi
12:00 PM95 °FClear.7 mph50%29.83 "Hg4 mi
11:00 AM93 °FClear.8 mph53%29.86 "Hg5 mi
10:00 AM91 °FClear.12 mph52%29.89 "Hg5 mi
9:00 AM86 °FClear.8 mph66%29.89 "Hg6 mi
8:00 AM82 °FClear.15 mph74%29.86 "Hg5 mi
7:00 AM82 °FPassing clouds.9 mph70%29.86 "Hg4 mi
6:00 AM82 °FClear.5 mph70%29.83 "Hg4 mi
1:00 AM82 °FPassing clouds.7 mph58%29.74 "Hg4 mi
10:00 PM
Thu, Apr 28
90 °FPassing clouds.3 mph59%29.74 "Hg4 mi
9:00 PM91 °FClear.No wind56%29.71 "Hg4 mi
8:00 PM95 °FPassing clouds.3 mph50%29.71 "Hg4 mi
7:00 PM95 °FPassing clouds.No wind47%29.68 "Hg4 mi
6:00 PM99 °FPassing clouds.3 mph42%29.65 "Hg5 mi
5:00 PM100 °FPartly sunny.6 mph40%29.65 "Hg5 mi
4:00 PM100 °FScattered clouds.8 mph42%29.65 "Hg5 mi
3:00 PM100 °FScattered clouds.9 mph42%29.65 "Hg5 mi
Weather by CustomWeather, © 2016

See weather overviewHow to use our weather pages